Location: Ostrava
(49.8330°N, 18.2830°E)
Time: 23:40:11
(UTC+02:00)

Cosmos 1400 Rocket - Visible Passes

Search period start: 03 August 2015 00:00
Search period end: 13 August 2015 00:00
Orbit: 526 x 574 km, 81.2° (Epoch: 02 August)

Date Brightness Start Highest point End Pass type
(mag) Time Alt. Az. Time Alt. Az. Time Alt. Az.
03 Aug 4.7 01:51:19 18° ESE 01:52:24 20° E 01:55:23 10° NE visible
03 Aug 3.5 03:27:03 24° WSW 03:28:47 38° WNW 03:32:30 10° N visible
04 Aug 4.5 01:47:12 21° ESE 01:48:01 22° E 01:51:09 10° NE visible
04 Aug 3.7 03:22:55 25° WSW 03:24:28 34° WNW 03:28:07 10° N visible
05 Aug 4.4 01:43:03 23° ESE 01:43:39 24° E 01:46:54 10° NE visible
05 Aug 3.9 03:18:47 25° WSW 03:20:09 31° WNW 03:23:43 10° N visible
06 Aug 4.2 01:38:54 26° ESE 01:39:16 27° E 01:42:40 10° NNE visible
06 Aug 4.0 03:14:37 24° W 03:15:50 29° WNW 03:19:19 10° N visible
07 Aug 4.1 01:34:43 29° E 01:34:54 29° E 01:38:24 10° NNE visible
07 Aug 4.1 03:10:27 23° W 03:11:31 26° WNW 03:14:55 10° N visible
08 Aug 4.0 01:30:32 32° E 01:30:32 32° E 01:34:07 10° NNE visible
08 Aug 4.2 03:06:15 22° W 03:07:12 24° WNW 03:10:30 10° N visible
09 Aug 3.8 01:26:20 36° E 01:26:20 36° E 01:29:50 10° NNE visible
09 Aug 4.3 03:02:03 21° W 03:02:54 22° WNW 03:06:05 10° NNW visible
10 Aug 3.8 01:22:07 39° E 01:22:07 39° E 01:25:33 10° NNE visible
10 Aug 4.5 02:57:50 20° W 02:58:36 21° WNW 03:01:38 10° NNW visible
11 Aug 3.7 01:17:54 41° ENE 01:17:54 41° ENE 01:21:15 10° NNE visible
11 Aug 4.6 02:53:37 19° WNW 02:54:17 19° WNW 02:57:11 10° NNW visible
12 Aug 3.6 01:13:40 44° ENE 01:13:40 44° ENE 01:16:55 10° NNE visible
12 Aug 4.7 02:49:23 17° WNW 02:49:59 18° WNW 02:52:44 10° NNW visible
